CAPE
0 0 0 0 1 1 1 0 0 0 0 0 0 0 0 0 0 0 0 2 3 5 5 6 3 2 2 1 0 0 0 0 0 1 0 1 2 2 2 2 2 2 2
0 0 0 0 0 0 0 0 0 0 0 0 0 0 0 0 0 0 0 0 0 3 5 3 3 3 1 1 0 0 0 0 0 0 1 1 1 0 1 1 2 1 2
0 0 0 0 0 0 0 0 0 0 0 0 0 0 0 0 0 0 0 0 0 0 1 1 1 1 1 0 0 0 0 0 0 0 0 0 0 0 0 0 1 2 1
0 0 0 0 0 0 0 0 0 0 0 0 0 0 0 0 0 0 0 0 0 0 0 0 0 0 0 0 0 0 0 0 0 0 0 0 0 0 1 1 1 1 2
0 0 0 0 0 0 0 0 0 0 0 0 0 0 0 0 0 0 0 0 0 0 0 0 0 0 0 0 0 0 0 0 0 0 0 0 0 0 0 1 2 2 1
0 0 0 0 0 0 0 0 0 0 0 0 0 0 0 0 0 0 0 0 0 0 0 0 0 0 0 0 0 0 0 0 0 0 0 0 0 1 1 1 1 0 0
1 0 0 0 0 0 0 0 0 0 0 0 0 0 0 0 0 0 0 0 0 0 0 0 0 0 0 0 0 0 0 0 0 0 0 0 0 0 1 1 1 0 0
1 1 0 0 0 0 0 0 0 0 0 0 0 0 0 0 0 0 0 0 0 0 0 0 0 0 0 0 0 0 0 0 0 0 0 0 0 0 1 1 0 0 0
2 1 0 0 0 0 0 0 0 0 0 0 0 0 0 0 0 0 0 0 0 0 0 0 0 0 0 0 0 0 0 0 0 0 0 0 0 0 0 0 0 0 0
2 0 0 0 0 0 0 0 0 0 0 0 0 0 0 0 0 0 0 0 0 0 0 0 0 0 0 0 0 0 0 0 0 0 0 0 0 0 0 0 0 0 0
3 2 0 0 0 0 0 0 0 0 0 0 0 0 0 0 0 0 0 0 0 0 0 0 0 0 0 0 0 0 0 0 0 0 0 0 0 0 0 0 0 0 0
3 2 1 0 0 0 0 0 0 0 0 0 0 0 0 0 0 0 0 0 0 0 0 0 0 0 0 0 0 0 0 0 0 0 0 0 0 0 0 0 0 0 0
5 3 1 0 0 0 0 0 0 0 0 0 0 0 0 0 0 0 0 0 0 0 0 0 0 0 0 0 0 0 0 0 0 0 0 0 0 0 0 0 0 0 0
3 2 1 0 0 0 0 0 0 0 0 0 0 0 0 0 0 0 0 0 0 0 0 0 0 0 0 0 0 0 0 0 0 0 0 0 0 0 0 0 0 0 0
3 3 1 0 0 0 0 0 0 0 0 0 0 0 0 0 0 0 0 0 0 0 0 0 0 0 0 0 0 0 0 0 0 0 0 0 0 0 0 0 0 0 0
1 3 1 0 0 0 0 0 0 0 0 0 0 0 0 0 0 0 0 0 0 0 0 0 0 0 0 0 0 0 0 0 0 0 0 0 0 0 0 0 0 0 0
2 2 1 0 0 0 0 0 0 0 0 0 0 0 0 0 0 0 0 0 0 0 0 0 0 0 0 0 0 0 0 0 0 0 0 0 0 0 0 0 0 0 0
1 1 0 0 0 0 0 0 0 0 0 0 0 0 0 0 0 0 0 0 0 0 0 0 0 0 0 0 0 0 0 0 0 0 0 0 0 0 0 0 0 0 0
1 1 0 0 0 0 0 0 0 0 0 0 0 0 0 0 0 0 0 0 0 0 0 0 0 0 0 0 0 0 0 0 0 0 0 0 0 0 0 0 0 0 0
2 1 0 0 0 0 0 0 0 0 0 0 0 0 0 0 0 0 0 0 0 0 0 0 0 0 0 0 0 0 0 0 0 0 0 0 0 0 0 0 0 0 0
1 0 0 0 0 0 0 0 0 0 0 0 0 0 0 0 0 0 0 0 0 0 0 0 0 0 0 0 0 0 0 0 0 0 0 0 0 0 0 0 0 0 0
2 1 1 0 0 0 0 0 0 0 0 0 0 0 0 0 0 0 0 0 0 0 0 0 0 0 0 0 0 0 0 0 0 0 0 0 0 0 0 0 0 0 0
3 2 1 0 0 0 0 0 0 0 0 0 0 0 0 0 0 0 0 0 0 0 0 0 0 0 0 0 0 0 0 0 0 0 0 0 0 0 0 0 0 0 0
2 2 1 2 0 0 0 0 0 0 0 0 0 0 0 0 0 0 0 0 0 0 0 0 0 0 0 0 0 0 0 0 0 0 0 0 0 0 0 0 0 0 0
2 2 1 1 1 2 0 0 0 0 0 0 0 0 0 0 0 0 0 0 0 0 0 0 0 0 0 0 0 0 0 0 0 0 0 0 0 0 0 0 0 0 0
3 2 1 2 2 2 1 1 1 0 0 0 0 0 0 0 0 0 0 0 0 0 0 0 0 0 0 0 0 0 0 0 0 0 0 0 0 0 0 0 0 0 0
CIN
-0 -0 -1 -0 -10 -13 -17 -0 -1 -0 -0 -0 -0 -0 -0 -0 -0 -0 -0 -3 -1 -0 -0 -1 -1 -1 -0 -0 -0 -0 -0 -0 -0 -0 -0 -0 -0 -0 -1 -0 -0 -0 -1
-0 -0 -0 -0 -0 -0 -0 -0 -1 -0 -0 -0 -0 -0 -0 -0 -0 -0 -0 -0 -1 -0 -0 -0 -1 -1 -0 -0 -0 -0 -0 -0 -0 -0 -0 -0 -0 -0 -1 -0 -0 -0 -0
-0 -0 -0 -0 -0 -0 -0 -0 -0 -0 -0 -0 -0 -0 -0 -0 -0 -0 -0 -0 -0 -0 -0 -1 -1 -0 -0 -0 -0 -0 -0 -0 -0 -0 -0 -0 -0 -0 -1 -0 -0 -0 -0
-0 -0 -0 -0 -0 -0 -0 -0 -0 -0 -0 -0 -0 -0 -0 -0 -0 -0 -0 -0 -0 -0 -0 -0 -0 -0 -0 -0 -0 -0 -0 -0 -0 -0 -0 -0 -0 -0 -0 -0 -0 -0 -0
-0 -0 -0 -0 -0 -0 -0 -0 -0 -0 -0 -0 -0 -0 -0 -0 -0 -0 -0 -0 -0 -0 -0 -0 -0 -0 -0 -0 -0 -0 -0 -0 -0 -0 -0 -0 -0 -0 -0 -0 -0 -0 -0
-0 -0 -0 -0 -0 -0 -0 -0 -0 -0 -0 -0 -0 -0 -0 -0 -0 -0 -0 -0 -0 -0 -0 -0 -0 -0 -0 -0 -0 -0 -0 -0 -0 -0 -0 -0 -0 -0 -1 -0 -0 -0 -0
-0 -0 -0 -0 -0 -0 -0 -0 -0 -0 -0 -0 -0 -0 -0 -0 -0 -0 -0 -0 -0 -0 -0 -0 -0 -0 -0 -0 -0 -0 -0 -0 -0 -0 -0 -0 -0 -0 -0 -0 -0 -0 -0
-0 -0 -0 -0 -0 -0 -0 -0 -0 -0 -0 -0 -0 -0 -0 -0 -0 -0 -0 -0 -0 -0 -0 -0 -0 -0 -0 -0 -0 -0 -0 -0 -0 -0 -0 -0 -0 -0 -0 -0 -0 -0 -0
-0 -0 -0 -0 -0 -0 -0 -0 -0 -0 -0 -0 -0 -0 -0 -0 -0 -0 -0 -0 -0 -0 -0 -0 -0 -0 -0 -0 -0 -0 -0 -0 -0 -0 -0 -0 -0 -0 -0 -0 -0 -0 -0
-0 -0 -0 -0 -0 -0 -0 -0 -0 -0 -0 -0 -0 -0 -0 -0 -0 -0 -0 -0 -0 -0 -0 -0 -0 -0 -0 -0 -0 -0 -0 -0 -0 -0 -0 -0 -0 -0 -0 -0 -0 -0 -0
-0 -0 -0 -0 -0 -0 -0 -0 -0 -0 -0 -0 -0 -0 -0 -0 -0 -0 -0 -0 -0 -0 -0 -0 -0 -0 -0 -0 -0 -0 -0 -0 -0 -0 -0 -0 -0 -0 -0 -0 -0 -0 -0
-0 -0 -0 -0 -0 -0 -0 -0 -0 -0 -0 -0 -0 -0 -0 -0 -0 -0 -0 -0 -0 -0 -0 -0 -0 -0 -0 -0 -0 -0 -0 -0 -0 -0 -0 -0 -0 -0 -0 -0 -0 -0 -0
-0 -0 -0 -0 -0 -0 -0 -0 -0 -0 -0 -0 -0 -0 -0 -0 -0 -0 -0 -0 -0 -0 -0 -0 -0 -0 -0 -0 -0 -0 -0 -0 -0 -0 -0 -0 -0 -0 -0 -0 -0 -0 -0
-0 -0 -0 -0 -0 -0 -0 -0 -0 -0 -0 -0 -0 -0 -0 -0 -0 -0 -0 -0 -0 -0 -0 -0 -0 -0 -0 -0 -0 -0 -0 -0 -0 -0 -0 -0 -0 -0 -0 -0 -0 -0 -0
-0 -0 -0 -0 -0 -0 -0 -0 -0 -0 -0 -0 -0 -0 -0 -0 -0 -0 -0 -0 -0 -0 -0 -0 -0 -0 -0 -0 -0 -0 -0 -0 -0 -0 -0 -0 -0 -0 -0 -0 -0 -0 -0
-0 -0 -0 -0 -0 -0 -0 -0 -0 -0 -0 -0 -0 -0 -0 -0 -0 -0 -0 -0 -0 -0 -0 -0 -0 -0 -0 -0 -0 -0 -0 -0 -0 -0 -0 -0 -0 -0 -0 -0 -0 -0 -0
-0 -0 -0 -0 -0 -0 -0 -0 -0 -0 -0 -0 -0 -0 -0 -0 -0 -0 -0 -0 -0 -0 -0 -0 -0 -0 -0 -0 -0 -0 -0 -0 -0 -0 -0 -0 -0 -0 -0 -0 -0 -0 -0
-0 -0 -0 -0 -0 -0 -0 -0 -0 -0 -0 -0 -0 -0 -0 -0 -0 -0 -0 -0 -0 -0 -0 -0 -0 -0 -0 -0 -0 -0 -0 -0 -0 -0 -0 -0 -0 -0 -0 -0 -0 -0 -0
-0 -0 -0 -0 -0 -0 -0 -0 -0 -0 -0 -0 -0 -0 -0 -0 -0 -0 -0 -0 -0 -0 -0 -0 -0 -0 -0 -0 -0 -0 -0 -0 -0 -0 -0 -0 -0 -0 -0 -0 -0 -0 -0
-0 -0 -0 -0 -0 -0 -0 -0 -0 -0 -0 -0 -0 -0 -0 -0 -0 -0 -0 -0 -0 -0 -0 -0 -0 -0 -0 -0 -0 -0 -0 -0 -0 -0 -0 -0 -0 -0 -0 -0 -0 -0 -0
-0 -0 -0 -0 -0 -0 -0 -0 -0 -0 -0 -0 -0 -0 -0 -0 -0 -0 -0 -0 -0 -0 -0 -0 -0 -0 -0 -0 -0 -0 -0 -0 -0 -0 -0 -0 -0 -0 -0 -0 -0 -0 -0
-0 -0 -0 -0 -0 -0 -0 -0 -0 -0 -0 -0 -0 -0 -0 -0 -0 -0 -0 -0 -0 -0 -0 -0 -0 -0 -0 -0 -0 -0 -0 -0 -0 -0 -0 -0 -0 -0 -0 -0 -0 -0 -0
-0 -0 -0 -0 -0 -0 -0 -0 -0 -0 -0 -0 -0 -0 -0 -0 -0 -0 -0 -0 -0 -0 -0 -0 -0 -0 -0 -0 -0 -0 -0 -0 -0 -0 -0 -0 -0 -0 -0 -0 -0 -0 -0
-0 -0 -0 -0 -0 -0 -0 -0 -0 -0 -0 -0 -0 -0 -0 -0 -0 -0 -0 -0 -0 -0 -0 -0 -0 -0 -0 -0 -0 -0 -0 -0 -0 -0 -0 -0 -0 -0 -0 -0 -0 -0 -0
-0 -0 -0 -0 -0 -0 -0 -0 -0 -0 -0 -0 -0 -0 -0 -0 -0 -0 -0 -0 -0 -0 -0 -0 -0 -0 -0 -0 -0 -0 -0 -0 -0 -0 -0 -0 -0 -0 -0 -0 -0 -0 -0
-0 -0 -0 -0 -0 -0 -0 -0 -0 -0 -0 -0 -0 -0 -0 -0 -0 -0 -0 -0 -0 -0 -0 -0 -0 -0 -0 -0 -0 -0 -0 -0 -0 -0 -0 -0 -0 -0 -0 -0 -0 -0 -0
Wind_Speed
22 20 20 18 16 13 11 10 9 7 7 5 2 2 4 5 6 6 9 11 13 14 15 15 16 18 18 19 20 20 21 21 22 22 23 24 24 25 26 26 26 27 27
24 22 21 20 17 15 13 12 10 9 8 6 4 2 1 4 5 6 7 9 11 13 14 14 14 16 17 17 18 19 20 20 21 22 23 23 24 25 25 26 26 27 27
26 23 22 22 19 17 14 13 12 10 9 7 6 4 1 2 4 4 6 8 9 11 12 13 13 14 15 16 17 18 19 20 21 21 22 23 24 25 25 26 26 27 28
27 25 24 22 19 18 17 15 13 12 11 9 7 6 4 2 2 3 5 7 8 10 11 12 12 13 14 15 16 17 19 20 21 22 22 23 24 25 25 26 27 28 28
26 25 24 22 20 19 19 17 16 15 13 11 9 8 7 6 5 5 4 6 7 8 10 11 11 13 13 14 16 17 19 20 21 22 23 24 24 25 26 26 27 28 29
27 24 24 24 22 20 19 19 18 15 14 12 10 9 9 10 9 9 5 5 6 7 8 10 11 11 13 14 15 16 18 20 21 22 23 24 25 26 27 27 28 28 29
28 24 25 24 23 23 22 20 19 17 16 13 12 12 13 13 12 11 10 8 5 6 7 8 9 10 11 12 14 16 18 20 21 22 23 24 25 26 27 28 29 29 30
22 24 23 25 25 21 22 24 23 21 19 19 17 17 19 20 19 16 14 12 9 5 5 6 8 9 10 11 12 14 17 19 20 22 23 25 25 27 28 29 30 31 32
25 28 22 23 26 25 24 26 26 24 22 20 18 19 20 23 18 20 19 15 15 11 10 6 6 8 9 11 11 13 14 17 20 22 23 25 26 27 28 30 31 32 33
26 25 22 24 27 27 26 25 26 25 21 22 22 23 20 18 21 20 22 20 17 13 12 10 7 7 8 10 12 13 13 16 19 22 24 26 27 28 29 31 32 33 34
28 24 21 22 25 29 27 26 27 25 24 24 26 25 23 20 18 20 19 19 20 17 14 11 9 10 9 11 12 12 12 14 17 21 24 26 27 29 31 32 33 34 36
28 30 26 22 25 27 29 29 27 27 26 26 27 26 23 22 21 19 19 18 17 20 14 13 13 13 14 14 14 14 13 15 17 20 24 26 28 30 31 32 33 35 36
33 31 30 25 24 27 29 29 30 27 27 27 27 26 24 23 20 19 18 16 14 19 18 17 14 14 14 14 15 15 15 16 20 20 23 27 29 31 32 33 34 35 36
33 32 34 32 29 27 30 30 29 31 29 29 28 27 25 23 21 18 16 13 15 16 16 17 15 12 14 15 16 15 18 17 20 22 25 27 29 30 32 33 35 36 37
31 32 34 36 32 28 28 30 30 31 31 30 27 26 26 24 21 19 17 15 15 16 15 15 17 15 13 14 16 16 18 19 20 22 24 27 29 30 32 33 35 35 37
29 30 31 34 33 31 30 32 30 32 31 31 28 25 26 25 22 20 18 18 17 18 18 18 18 18 15 16 16 17 19 20 21 24 26 27 29 30 32 33 34 36 38
28 30 31 31 32 34 32 30 32 31 32 32 29 28 25 24 24 21 21 19 18 18 19 19 19 18 18 18 19 19 21 22 23 25 27 28 30 33 34 34 34 38 39
30 29 30 32 34 34 35 33 31 30 28 32 30 30 27 25 26 24 23 20 20 20 20 19 19 18 20 21 21 22 23 23 24 26 28 29 31 32 34 34 37 38 39
30 28 28 30 34 34 36 35 33 31 29 28 29 29 28 26 26 26 26 23 21 21 21 21 22 21 21 22 25 26 26 26 27 27 28 29 29 32 33 36 39 39 39
27 28 27 28 31 33 35 35 33 30 31 30 29 28 28 28 27 27 25 25 23 22 23 25 25 24 25 24 25 28 30 28 30 28 28 30 30 31 34 39 38 38 39
26 25 25 24 30 33 33 33 31 31 31 29 27 25 26 27 27 26 26 25 24 24 26 27 28 27 26 27 27 28 29 30 30 30 31 31 31 33 36 36 37 39 42
23 25 25 25 26 33 34 32 30 29 30 30 27 25 25 27 27 28 28 26 26 27 28 29 29 30 29 28 27 28 29 32 35 29 32 33 34 37 36 36 38 42 43
21 22 25 24 25 29 31 30 28 28 28 30 28 27 27 28 27 28 27 27 27 26 28 27 30 29 31 27 26 28 29 30 32 31 35 39 33 36 36 37 41 42 40
22 23 24 27 27 26 27 27 26 26 26 29 30 29 28 27 24 23 25 27 26 27 26 26 27 28 28 27 24 26 27 29 30 31 31 36 34 37 37 39 38 39 41
24 24 23 24 28 31 30 30 29 29 30 32 32 30 26 24 23 24 25 26 25 25 24 23 25 25 24 22 21 22 26 29 33 32 30 34 34 39 38 36 35 38 43
25 24 26 27 26 28 29 32 34 33 34 34 31 30 26 27 24 20 20 19 20 21 20 20 21 20 19 20 21 25 24 28 30 32 27 32 35 38 41 35 38 39 39
Wind_Direction
221 221 222 221 222 221 218 216 223 208 210 224 219 306 52 54 48 33 35 47 52 52 49 47 47 47 43 44 44 39 33 31 29 24 23 20 16 15 14 12 12 12 9
220 219 221 222 222 219 218 220 223 213 220 228 227 269 51 50 48 37 22 28 39 44 47 41 38 40 40 37 38 34 31 27 25 20 16 16 15 11 9 7 6 6 5
218 216 221 221 221 218 210 220 223 223 215 224 229 244 309 30 45 37 24 18 19 24 36 36 31 31 32 34 32 30 27 23 20 16 13 10 9 9 9 8 4 2 1
215 215 219 219 218 214 215 216 218 217 218 220 227 240 260 303 360 20 24 19 19 22 21 28 28 28 28 27 27 24 20 17 15 11 7 5 3 4 3 1 359 357 354
210 213 217 216 214 215 217 216 218 218 219 220 233 241 254 270 286 307 0 5 17 31 23 19 18 18 24 30 25 24 16 14 11 9 6 1 358 355 357 356 353 352 351
215 218 215 215 216 217 216 218 216 219 221 219 230 243 257 270 275 281 313 357 1 20 33 31 13 12 13 21 20 17 12 10 9 8 5 3 359 355 351 351 350 351 352
223 226 222 215 217 219 218 217 216 212 218 214 228 248 262 272 275 280 283 299 338 360 11 21 16 13 10 13 13 9 8 7 5 4 3 1 359 359 356 351 349 350 349
225 218 216 215 220 216 216 219 216 219 225 221 241 247 254 263 268 270 275 280 291 333 345 359 357 1 13 11 13 7 3 3 3 2 360 358 357 353 351 350 348 346 346
226 229 215 211 222 220 217 219 220 222 221 225 231 254 256 260 260 266 268 274 279 290 304 329 349 352 356 1 5 5 5 1 359 358 357 354 354 353 350 347 346 345 344
224 220 222 226 226 222 221 218 222 225 221 220 234 253 261 263 260 266 266 267 273 282 291 302 318 335 347 344 351 357 2 357 354 351 351 351 349 348 347 345 344 343 341
227 224 215 222 222 221 224 220 224 225 229 229 235 244 254 261 268 270 269 267 271 278 283 291 302 311 322 328 336 345 350 353 351 347 345 346 346 344 343 342 342 341 339
231 230 223 218 220 223 224 226 227 230 230 233 238 242 249 257 261 269 274 271 273 276 279 287 292 299 305 311 321 331 340 343 348 345 343 343 343 343 343 342 342 341 339
230 229 228 223 223 216 223 229 228 230 230 231 236 240 249 259 264 269 275 279 281 279 284 285 289 296 302 309 316 323 330 330 331 338 341 341 339 340 340 341 342 341 339
230 230 230 231 230 226 223 227 227 233 232 234 236 240 247 256 262 265 275 276 284 289 293 297 290 293 299 306 312 318 321 326 327 329 330 336 336 339 340 340 339 339 339
233 232 232 231 229 226 219 223 229 229 232 234 234 238 244 251 259 264 273 276 284 286 284 294 301 297 300 306 311 316 319 321 326 327 331 332 334 337 338 339 337 339 339
232 230 230 229 228 226 226 227 230 231 230 233 233 235 242 248 254 262 269 274 284 290 293 295 298 303 303 307 312 314 317 318 322 323 326 329 332 334 336 338 337 337 338
230 230 227 227 226 225 226 225 231 232 229 231 232 236 238 244 250 257 264 272 280 289 291 298 301 305 302 305 311 313 315 317 320 321 323 327 328 330 333 335 336 335 336
231 230 229 228 230 227 226 226 225 227 226 230 230 235 239 242 248 255 262 269 275 282 289 292 299 303 304 302 308 311 313 315 317 319 321 324 327 330 332 333 334 334 334
231 228 228 230 229 226 225 226 227 231 231 228 229 233 238 241 247 252 259 265 273 279 285 291 295 302 302 306 304 307 311 312 315 317 319 323 327 329 331 332 332 333 334
228 228 227 226 225 223 225 227 228 231 233 236 233 234 238 240 245 251 257 263 269 275 282 285 291 297 301 303 304 305 306 309 311 316 318 322 326 329 330 330 332 333 334
228 227 223 222 223 223 224 224 228 231 233 235 235 234 238 243 247 251 257 262 266 273 278 282 287 293 296 299 301 306 306 310 312 315 317 320 324 328 329 331 332 333 332
228 223 222 223 220 227 225 224 228 230 232 235 233 235 240 245 249 253 258 262 266 270 275 281 285 288 292 296 301 303 306 308 310 317 317 319 323 324 328 330 331 331 331
222 226 224 220 220 224 221 220 224 231 229 233 234 238 245 248 251 255 259 264 268 271 277 280 285 288 292 295 299 302 304 307 309 314 317 316 323 324 328 330 330 330 333
224 229 227 224 224 224 217 215 219 229 233 237 237 240 243 248 250 254 260 266 270 274 278 284 286 290 294 297 297 302 305 309 312 316 319 318 324 323 327 329 332 333 333
228 230 230 228 227 230 225 222 224 236 238 239 241 244 246 250 253 258 261 265 269 275 282 286 292 294 297 299 300 305 306 308 311 316 321 321 324 324 327 331 336 336 334
232 232 233 232 229 234 234 228 228 238 241 238 241 246 248 256 254 248 256 263 270 276 280 287 294 299 303 305 305 306 307 309 313 317 324 324 326 329 328 331 335 336 337